When you browse on this site, cookies collect data to enhance your experience and personalize the content and advertising you see.
Visit our Privacy Policy to learn more. By continuing to use the site, you agree to this use of cookies and data.
  • In Portugal
  • List of Countries
  • For 7 days
  • Water Temperature
  • Satellite Maps
  • Weather Map
  • Weather Widgets
  • user-avatar
    Login

    Hourly Weather Barbarka

    Today, 24 April, Wednesday

    Time Temperature Precipitation Wind Pressure Humidity
    00:00 +11°C° 0 mm 7 mps 752 mmHg 57%
    01:00 +10°C° 0 mm 5 mps 751 mmHg 60%
    02:00 +10°C° 0 mm 5 mps 751 mmHg 63%
    03:00 +9°C° 0 mm 6 mps 751 mmHg 65%
    04:00 +9°C° 0 mm 6 mps 751 mmHg 67%
    05:00 +10°C° 0 mm 6 mps 751 mmHg 68%
    06:00 +10°C° 0 mm 6 mps 751 mmHg 69%
    07:00 +12°C° 0 mm 7 mps 751 mmHg 69%
    08:00 +14°C° 0 mm 7 mps 751 mmHg 66%
    09:00 +16°C° 0 mm 7 mps 751 mmHg 62%
    10:00 +17°C° 0 mm 8 mps 751 mmHg 58%
    11:00 +17°C° 0 mm 7 mps 751 mmHg 58%
    12:00 +18°C° 0 mm 7 mps 751 mmHg 58%
    13:00 +19°C° 0 mm 6 mps 751 mmHg 59%
    14:00 +19°C° 0 mm 6 mps 750 mmHg 58%
    15:00 +20°C° 0 mm 6 mps 750 mmHg 58%
    16:00 +20°C° 0 mm 6 mps 750 mmHg 57%
    17:00 +19°C° 0 mm 6 mps 750 mmHg 60%
    18:00 +17°C° 0 mm 5 mps 750 mmHg 63%
    19:00 +17°C° 0 mm 5 mps 750 mmHg 66%
    20:00 +17°C° 0 mm 4 mps 750 mmHg 69%
    21:00 +15°C° 0 mm 4 mps 750 mmHg 72%
    22:00 +14°C° 0 mm 4 mps 751 mmHg 75%
    23:00 +14°C° 0 mm 5 mps 751 mmHg 74%

    Tomorrow, 25 April, Thursday

    Time Temperature Precipitation Wind Pressure Humidity
    00:00 +14°C° 0 mm 5 mps 750 mmHg 74%
    01:00 +14°C° 0 mm 5 mps 750 mmHg 73%
    02:00 +13°C° 0 mm 5 mps 750 mmHg 75%
    03:00 +13°C° 0 mm 5 mps 750 mmHg 76%
    04:00 +13°C° 0 mm 5 mps 750 mmHg 77%
    05:00 +14°C° 0 mm 5 mps 750 mmHg 76%
    06:00 +15°C° 0 mm 5 mps 750 mmHg 75%
    07:00 +16°C° 0 mm 6 mps 750 mmHg 74%
    08:00 +17°C° 0 mm 5 mps 750 mmHg 70%
    09:00 +19°C° 0 mm 5 mps 751 mmHg 66%
    10:00 +20°C° 0 mm 5 mps 751 mmHg 63%
    11:00 +21°C° 0 mm 4 mps 751 mmHg 61%
    12:00 +21°C° 0 mm 4 mps 751 mmHg 60%
    13:00 +22°C° 0 mm 3 mps 751 mmHg 59%
    14:00 +22°C° 0 mm 3 mps 751 mmHg 59%
    15:00 +23°C° 0 mm 2 mps 750 mmHg 60%
    16:00 +23°C° 0 mm 1 mps 750 mmHg 61%
    17:00 +22°C° 0 mm 1 mps 750 mmHg 65%
    18:00 +21°C° 0 mm 1 mps 750 mmHg 69%
    19:00 +17°C° 0 mm 0 mps 750 mmHg 74%
    20:00 +19°C° 0 mm 1 mps 750 mmHg 77%
    21:00 +18°C° 0 mm 1 mps 751 mmHg 80%
    22:00 +16°C° 0 mm 2 mps 751 mmHg 84%
    23:00 +16°C° 0 mm 2 mps 750 mmHg 85%

    Day after tomorrow, 26 April, Friday

    Time Temperature Precipitation Wind Pressure Humidity
    00:00 +15°C° 0 mm 2 mps 750 mmHg 86%
    01:00 +15°C° 0 mm 2 mps 750 mmHg 88%
    02:00 +14°C° 0 mm 2 mps 750 mmHg 88%
    03:00 +14°C° 0 mm 2 mps 749 mmHg 89%
    04:00 +13°C° 0 mm 3 mps 749 mmHg 89%
    05:00 +14°C° 0 mm 3 mps 749 mmHg 83%
    06:00 +16°C° 0 mm 3 mps 748 mmHg 78%
    07:00 +18°C° 0 mm 3 mps 748 mmHg 72%
    08:00 +19°C° 0 mm 3 mps 748 mmHg 66%
    09:00 +21°C° 0 mm 3 mps 748 mmHg 60%
    10:00 +22°C° 0 mm 3 mps 747 mmHg 54%
    11:00 +24°C° 0 mm 3 mps 747 mmHg 52%
    12:00 +25°C° 0 mm 4 mps 747 mmHg 49%
    13:00 +25°C° 0 mm 4 mps 747 mmHg 47%
    14:00 +25°C° 0 mm 4 mps 746 mmHg 47%
    15:00 +25°C° 0 mm 3 mps 746 mmHg 47%
    16:00 +25°C° 0 mm 3 mps 745 mmHg 47%
    17:00 +24°C° 0 mm 2 mps 745 mmHg 53%
    18:00 +22°C° 0 mm 1 mps 746 mmHg 59%
    19:00 +18°C° 0 mm 0 mps 746 mmHg 65%
    20:00 +20°C° 0 mm 1 mps 746 mmHg 66%
    21:00 +19°C° 0 mm 1 mps 746 mmHg 68%
    22:00 +19°C° 0 mm 1 mps 746 mmHg 69%
    23:00 +17°C° 0 mm 2 mps 746 mmHg 75%

    27 April, Saturday

    Time Temperature Precipitation Wind Pressure Humidity
    00:00 +16°C° 0 mm 3 mps 746 mmHg 80%
    01:00 +15°C° 0 mm 5 mps 746 mmHg 86%
    02:00 +14°C° 0.6 mm 5 mps 747 mmHg 88%
    03:00 +14°C° 0.6 mm 5 mps 747 mmHg 91%
    04:00 +13°C° 0.6 mm 5 mps 747 mmHg 93%
    05:00 +13°C° 0.2 mm 6 mps 748 mmHg 92%
    06:00 +11°C° 0.2 mm 6 mps 748 mmHg 91%
    07:00 +11°C° 0.2 mm 6 mps 748 mmHg 90%
    08:00 +11°C° 0.1 mm 6 mps 749 mmHg 89%
    09:00 +11°C° 0.1 mm 6 mps 749 mmHg 88%
    10:00 +11°C° 0.1 mm 6 mps 749 mmHg 86%
    11:00 +11°C° 0 mm 6 mps 749 mmHg 84%
    12:00 +12°C° 0 mm 5 mps 749 mmHg 82%
    13:00 +13°C° 0 mm 5 mps 749 mmHg 79%
    14:00 +13°C° 0 mm 5 mps 749 mmHg 77%
    15:00 +14°C° 0 mm 5 mps 749 mmHg 74%
    16:00 +14°C° 0 mm 5 mps 749 mmHg 71%
    17:00 +13°C° 0 mm 4 mps 749 mmHg 72%
    18:00 +13°C° 0 mm 3 mps 749 mmHg 74%
    19:00 +12°C° 0 mm 3 mps 749 mmHg 75%
    20:00 +12°C° 0 mm 2 mps 750 mmHg 76%
    21:00 +12°C° 0 mm 2 mps 750 mmHg 77%
    22:00 +10°C° 0 mm 2 mps 750 mmHg 78%
    23:00 +10°C° 0 mm 2 mps 750 mmHg 77%

    28 April, Sunday

    Time Temperature Precipitation Wind Pressure Humidity
    00:00 +10°C° 0 mm 2 mps 750 mmHg 76%
    01:00 +9°C° 0 mm 2 mps 750 mmHg 75%
    02:00 +9°C° 0 mm 2 mps 750 mmHg 75%
    03:00 +9°C° 0 mm 2 mps 751 mmHg 76%
    04:00 +9°C° 0 mm 2 mps 751 mmHg 76%
    05:00 +9°C° 0 mm 3 mps 751 mmHg 76%
    06:00 +10°C° 0 mm 3 mps 751 mmHg 75%
    07:00 +11°C° 0 mm 4 mps 751 mmHg 75%
    08:00 +12°C° 0 mm 4 mps 752 mmHg 72%
    09:00 +13°C° 0 mm 4 mps 752 mmHg 69%
    10:00 +15°C° 0 mm 5 mps 752 mmHg 65%
    11:00 +15°C° 0 mm 5 mps 752 mmHg 63%
    12:00 +16°C° 0 mm 5 mps 752 mmHg 60%
    13:00 +17°C° 0 mm 5 mps 752 mmHg 58%
    14:00 +17°C° 0.2 mm 4 mps 752 mmHg 61%
    15:00 +17°C° 0.2 mm 4 mps 752 mmHg 64%
    16:00 +16°C° 0.2 mm 3 mps 752 mmHg 68%
    17:00 +14°C° 0.4 mm 3 mps 752 mmHg 73%
    18:00 +13°C° 0.4 mm 3 mps 753 mmHg 78%
    19:00 +12°C° 0.4 mm 4 mps 753 mmHg 84%
    20:00 +12°C° 0.3 mm 3 mps 753 mmHg 86%
    21:00 +11°C° 0.3 mm 3 mps 753 mmHg 87%
    22:00 +11°C° 0.3 mm 3 mps 753 mmHg 89%
    23:00 +10°C° 0 mm 4 mps 753 mmHg 90%

    29 April, Monday

    Time Temperature Precipitation Wind Pressure Humidity
    00:00 +10°C° 0 mm 4 mps 753 mmHg 90%
    01:00 +10°C° 0 mm 4 mps 753 mmHg 91%
    02:00 +8°C° 0 mm 4 mps 753 mmHg 92%
    03:00 +8°C° 0 mm 4 mps 753 mmHg 93%
    04:00 +8°C° 0 mm 4 mps 753 mmHg 94%
    05:00 +8°C° 0.1 mm 4 mps 753 mmHg 92%
    06:00 +10°C° 0.1 mm 4 mps 753 mmHg 91%
    07:00 +10°C° 0.1 mm 4 mps 753 mmHg 90%
    08:00 +11°C° 0.1 mm 4 mps 753 mmHg 90%
    09:00 +11°C° 0.1 mm 4 mps 753 mmHg 91%
    10:00 +11°C° 0.1 mm 4 mps 753 mmHg 91%
    11:00 +12°C° 0.2 mm 4 mps 753 mmHg 90%
    12:00 +13°C° 0.2 mm 5 mps 752 mmHg 89%
    13:00 +14°C° 0.2 mm 5 mps 752 mmHg 88%
    14:00 +14°C° 0.4 mm 5 mps 752 mmHg 87%
    15:00 +13°C° 0.4 mm 5 mps 752 mmHg 87%
    16:00 +13°C° 0.4 mm 5 mps 752 mmHg 86%
    17:00 +13°C° 0 mm 5 mps 753 mmHg 86%
    18:00 +13°C° 0 mm 4 mps 753 mmHg 86%
    19:00 +12°C° 0 mm 4 mps 753 mmHg 87%
    20:00 +12°C° 0 mm 4 mps 754 mmHg 87%
    21:00 +11°C° 0 mm 4 mps 754 mmHg 88%
    22:00 +11°C° 0 mm 4 mps 754 mmHg 88%
    23:00 +10°C° 0 mm 4 mps 754 mmHg 86%
    Show more